SR1NRS Weather Reports


Display with metric or nautical units.
time (UTC)temp
F
wind
direction
speed
MPH
gust
MPH
rain 1hr
in
rain 24hr
in
rain mn
in
humidity
%
barometer
mb
20260502163123 78 234 2.0 3.0 0.00 0.00 0.00 21 1015.2
20260502162623 78 191 4.0 5.0 0.00 0.00 0.00 21 1015.6
20260502162123 78 205 5.0 7.0 0.00 0.00 0.00 21 1015.9
20260502161624 78 216 5.0 7.0 0.00 0.00 0.00 21 1015.6
20260502161123 78 186 7.0 9.0 0.00 0.00 0.00 21 1015.6
20260502160623 78 195 3.0 5.0 0.00 0.00 0.00 21 1015.9
20260502160123 78 168 5.0 7.0 0.00 0.00 0.00 20 1015.9
20260502152124 78 179 4.0 7.0 0.00 0.00 0.00 21 1016.6
20260502151623 78 203 3.0 5.0 0.00 0.00 0.00 20 1016.6
20260502151124 78 232 7.0 9.0 0.00 0.00 0.00 20 1016.6
20260502150623 78 194 4.0 6.0 0.00 0.00 0.00 20 1016.6
20260502150123 78 241 4.0 5.0 0.00 0.00 0.00 20 1016.9
20260502140124 78 223 5.0 6.0 0.00 0.00 0.00 21 1017.6
20260502130623 78 271 5.0 6.0 0.00 0.00 0.00 24 1018.3
20260502130123 77 168 3.0 5.0 0.00 0.00 0.00 25 1018.6
20260502123623 77 137 3.0 5.0 0.00 0.00 0.00 24 1019.0
20260502123123 78 235 9.0 13.0 0.00 0.00 0.00 23 1019.0
20260502122624 76 216 4.0 6.0 0.00 0.00 0.00 23 1019.0
20260502122124 76 221 5.0 7.0 0.00 0.00 0.00 23 1019.0
20260502121623 77 270 7.0 11.0 0.00 0.00 0.00 23 1019.0
20260502121124 76 255 5.0 8.0 0.00 0.00 0.00 23 1019.0
20260502120623 76 259 9.0 10.0 0.00 0.00 0.00 24 1019.3
20260502120123 76 228 1.0 2.0 0.00 0.00 0.00 24 1019.3
20260502115624 76 230 8.0 10.0 0.00 0.00 0.00 25 1019.6
20260502115123 76 241 7.0 9.0 0.00 0.00 0.00 24 1019.3
20260502114625 75 239 3.0 7.0 0.00 0.00 0.00 24 1019.6
20260502114123 75 222 3.0 3.0 0.00 0.00 0.00 24 1019.6
20260502113623 75 276 10.0 14.0 0.00 0.00 0.00 24 1019.6
20260502113123 75 313 3.0 5.0 0.00 0.00 0.00 25 1019.6
20260502112623 75 193 8.0 10.0 0.00 0.00 0.00 25 1019.6
20260502112123 75 222 5.0 7.0 0.00 0.00 0.00 26 1019.6
20260502111623 75 213 4.0 6.0 0.00 0.00 0.00 25 1020.0
20260502111123 75 181 4.0 7.0 0.00 0.00 0.00 25 1020.0
20260502110623 74 250 9.0 11.0 0.00 0.00 0.00 26 1020.0
20260502110123 75 215 4.0 5.0 0.00 0.00 0.00 26 1020.0
20260502105623 75 309 5.0 7.0 0.00 0.00 0.00 26 1020.0
20260502105123 75 189 3.0 5.0 0.00 0.00 0.00 26 1020.0
20260502104624 74 134 1.0 2.0 0.00 0.00 0.00 27 1020.3
20260502104123 74 207 7.0 9.0 0.00 0.00 0.00 27 1020.0
20260502103623 75 255 7.0 9.0 0.00 0.00 0.00 28 1020.3
20260502103123 74 205 3.0 5.0 0.00 0.00 0.00 28 1020.7
20260502102624 73 267 9.0 10.0 0.00 0.00 0.00 28 1020.3
20260502102123 73 246 4.0 9.0 0.00 0.00 0.00 28 1020.7
20260502101623 73 238 7.0 8.0 0.00 0.00 0.00 28 1020.7
20260502101123 74 213 6.0 8.0 0.00 0.00 0.00 28 1020.7
20260502100623 73 219 5.0 8.0 0.00 0.00 0.00 28 1020.7
20260502100123 74 271 5.0 8.0 0.00 0.00 0.00 29 1020.7
20260502091123 74 188 5.0 6.0 0.00 0.00 0.00 29 1021.3
20260502090624 73 167 7.0 9.0 0.00 0.00 0.00 29 1021.3
20260502090123 73 126 7.0 9.0 0.00 0.00 0.00 30 1021.0
20260502071123 63 168 6.0 7.0 0.00 0.00 0.00 41 1022.0
20260502070623 62 175 7.0 8.0 0.00 0.00 0.00 43 1022.4
20260502070124 63 161 2.0 3.0 0.00 0.00 0.00 42 1022.4
20260502065623 62 192 0.0 0.0 0.00 0.00 0.00 43 1022.4
20260502065124 61 193 3.0 3.0 0.00 0.00 0.00 44 1022.4
20260502064623 60 135 3.0 3.0 0.00 0.00 0.00 44 1022.4
20260502064123 60 171 3.0 5.0 0.00 0.00 0.00 45 1022.4
20260502063623 60 160 1.0 2.0 0.00 0.00 0.00 46 1022.4
20260502063123 59 123 3.0 5.0 0.00 0.00 0.00 47 1022.4
20260502062623 58 159 5.0 6.0 0.00 0.00 0.00 47 1022.4
20260502062123 58 147 2.0 2.0 0.00 0.00 0.00 46 1022.4
20260502061624 58 164 3.0 3.0 0.00 0.00 0.00 44 1022.4
20260502061123 57 197 1.0 2.0 0.00 0.00 0.00 46 1022.4
20260502060623 56 168 3.0 3.0 0.00 0.00 0.00 47 1022.4
20260502060123 57 155 2.0 3.0 0.00 0.00 0.00 46 1022.7
20260502055623 56 154 3.0 3.0 0.00 0.00 0.00 46 1022.4
20260502055123 55 192 0.0 0.0 0.00 0.00 0.00 48 1022.4
20260502054623 55 181 2.0 2.0 0.00 0.00 0.00 49 1022.7
20260502054123 54 164 1.0 2.0 0.00 0.00 0.00 51 1022.7
20260502053623 53 193 2.0 3.0 0.00 0.00 0.00 52 1023.0
20260502053123 53 196 1.0 1.0 0.00 0.00 0.00 52 1022.7
20260502052623 52 181 0.0 0.0 0.00 0.00 0.00 53 1022.7
20260502051655 51 152 3.0 3.0 0.00 0.00 0.00 54 1022.7
20260502051123 52 168 2.0 2.0 0.00 0.00 0.00 53 1022.4
20260502050624 52 181 1.0 2.0 0.00 0.00 0.00 53 1022.4
20260502050124 52 205 0.0 1.0 0.00 0.00 0.00 53 1022.7
20260502045625 51 206 1.0 1.0 0.00 0.00 0.00 55 1022.7
20260502045123 52 208 0.0 0.0 0.00 0.00 0.00 54 1022.7
20260502044624 51 197 0.0 0.0 0.00 0.00 0.00 55 1022.4
20260502044124 51 204 0.0 1.0 0.00 0.00 0.00 56 1022.4
20260502043623 50 200 1.0 1.0 0.00 0.00 0.00 56 1022.4
20260502043126 50 195 0.0 0.0 0.00 0.00 0.00 57 1022.4
20260502042623 50 200 0.0 1.0 0.00 0.00 0.00 57 1022.4
20260502042123 50 213 0.0 0.0 0.00 0.00 0.00 57 1022.4
20260502041623 49 209 0.0 0.0 0.00 0.00 0.00 57 1022.4
20260502041123 49 202 0.0 1.0 0.00 0.00 0.00 58 1022.4
20260502040623 49 210 0.0 0.0 0.00 0.00 0.00 58 1022.7
20260502040123 48 201 0.0 0.0 0.00 0.00 0.00 59 1022.4
20260502035624 48 210 0.0 0.0 0.00 0.00 0.00 59 1022.4
20260502035123 48 211 1.0 1.0 0.00 0.00 0.00 60 1022.7
20260502034623 48 205 0.0 0.0 0.00 0.00 0.00 61 1022.7
20260502034123 47 211 0.0 0.0 0.00 0.00 0.00 62 1022.4
20260502033623 46 213 0.0 0.0 0.00 0.00 0.00 64 1022.7
20260502033123 46 214 0.0 0.0 0.00 0.00 0.00 64 1022.7
20260502032623 46 214 0.0 0.0 0.00 0.00 0.00 63 1022.7
20260502032123 47 214 0.0 0.0 0.00 0.00 0.00 63 1023.0
20260502031623 48 213 0.0 0.0 0.00 0.00 0.00 62 1022.7
20260502031123 47 207 0.0 0.0 0.00 0.00 0.00 61 1022.7
20260502030623 47 210 0.0 0.0 0.00 0.00 0.00 62 1023.0
20260502030123 47 217 0.0 0.0 0.00 0.00 0.00 61 1023.0
20260502025623 48 214 0.0 1.0 0.00 0.00 0.00 61 1022.7
20260502025124 47 159 1.0 1.0 0.00 0.00 0.00 61 1023.0
20260502024623 47 152 2.0 2.0 0.00 0.00 0.00 61 1023.0
20260502024123 47 181 1.0 2.0 0.00 0.00 0.00 60 1022.7
20260502023623 48 191 0.0 1.0 0.00 0.00 0.00 60 1022.7
20260502023123 48 199 1.0 1.0 0.00 0.00 0.00 60 1023.0
20260502022623 48 197 1.0 1.0 0.00 0.00 0.00 61 1022.7
20260502022124 48 202 0.0 0.0 0.00 0.00 0.00 61 1023.0
20260502021624 48 205 0.0 0.0 0.00 0.00 0.00 60 1023.0
20260502021123 48 183 0.0 0.0 0.00 0.00 0.00 61 1023.0
20260502020624 48 221 0.0 0.0 0.00 0.00 0.00 60 1022.7
20260502020123 48 201 1.0 1.0 0.00 0.00 0.00 60 1023.0
20260502015623 48 179 0.0 1.0 0.00 0.00 0.00 60 1023.0
20260502015123 48 183 3.0 3.0 0.00 0.00 0.00 60 1023.0
20260502014623 49 164 3.0 5.0 0.00 0.00 0.00 58 1023.0
20260502014123 49 211 1.0 1.0 0.00 0.00 0.00 59 1023.0
20260502013623 49 193 1.0 1.0 0.00 0.00 0.00 59 1023.0
20260502013123 49 207 0.0 0.0 0.00 0.00 0.00 60 1023.0
20260502012623 49 196 1.0 1.0 0.00 0.00 0.00 59 1023.0
20260502012123 50 199 1.0 1.0 0.00 0.00 0.00 58 1023.0
20260502011625 50 175 1.0 1.0 0.00 0.00 0.00 57 1023.0
20260502011123 50 220 1.0 1.0 0.00 0.00 0.00 56 1023.0
20260502010624 50 203 1.0 1.0 0.00 0.00 0.00 56 1023.0
20260502010123 50 199 1.0 1.0 0.00 0.00 0.00 56 1023.0
20260502005623 51 216 1.0 1.0 0.00 0.00 0.00 54 1023.0
20260502005127 52 216 0.0 0.0 0.00 0.00 0.00 52 1023.0
20260502004624 52 209 0.0 1.0 0.00 0.00 0.00 50 1023.0
20260502004128 51 216 0.0 0.0 0.00 0.00 0.00 53 1023.0
20260502003623 51 216 0.0 0.0 0.00 0.00 0.00 54 1023.0
20260502003124 51 167 2.0 2.0 0.00 0.00 0.00 53 1023.4
20260502002623 51 178 2.0 2.0 0.00 0.00 0.00 54 1023.4
20260502002123 50 216 1.0 1.0 0.00 0.00 0.00 56 1023.4
20260502001624 49 215 0.0 0.0 0.00 0.00 0.00 58 1023.7
20260502001123 50 213 0.0 0.0 0.00 0.00 0.00 57 1023.4
20260502000623 50 194 1.0 1.0 0.00 0.00 0.00 57 1023.4
20260502000124 51 217 0.0 0.0 0.00 0.00 0.00 56 1023.4
20260501235623 51 219 0.0 0.0 0.00 0.00 0.00 54 1023.4
20260501235123 51 188 0.0 0.0 0.00 0.00 0.00 53 1023.7
20260501234627 52 232 0.0 0.0 0.00 0.00 0.00 52 1023.7
20260501234124 52 222 0.0 0.0 0.00 0.00 0.00 51 1023.7
20260501233624 53 206 0.0 0.0 0.00 0.00 0.00 50 1023.7
20260501233123 53 219 0.0 0.0 0.00 0.00 0.00 48 1023.4
20260501232623 54 216 0.0 0.0 0.00 0.00 0.00 48 1023.7
20260501232124 54 216 0.0 0.0 0.00 0.00 0.00 46 1023.7
20260501231623 54 223 0.0 0.0 0.00 0.00 0.00 46 1023.7
20260501231123 55 212 1.0 1.0 0.00 0.00 0.00 45 1024.0
20260501230623 56 211 1.0 1.0 0.00 0.00 0.00 42 1024.0
20260501230124 56 215 1.0 1.0 0.00 0.00 0.00 41 1023.4
20260501225623 55 172 0.0 1.0 0.00 0.00 0.00 41 1023.7
20260501225123 55 218 0.0 0.0 0.00 0.00 0.00 44 1024.0
20260501224623 55 218 0.0 0.0 0.00 0.00 0.00 45 1024.0
20260501224123 55 218 0.0 0.0 0.00 0.00 0.00 44 1023.7
20260501223624 54 188 1.0 1.0 0.00 0.00 0.00 45 1024.0
20260501223123 54 219 0.0 0.0 0.00 0.00 0.00 45 1024.0
20260501222623 55 216 0.0 0.0 0.00 0.00 0.00 46 1024.0
20260501222125 55 197 1.0 1.0 0.00 0.00 0.00 43 1024.0
20260501221623 55 188 1.0 1.0 0.00 0.00 0.00 42 1024.0
20260501221123 55 208 0.0 0.0 0.00 0.00 0.00 43 1024.0
20260501220625 55 217 0.0 0.0 0.00 0.00 0.00 43 1024.4
20260501220124 54 216 0.0 0.0 0.00 0.00 0.00 44 1024.0
20260501215623 55 212 0.0 0.0 0.00 0.00 0.00 43 1024.0
20260501215124 55 216 0.0 0.0 0.00 0.00 0.00 43 1024.0
20260501214623 55 221 0.0 1.0 0.00 0.00 0.00 42 1024.4
20260501214123 55 235 0.0 1.0 0.00 0.00 0.00 42 1024.4
20260501213623 55 228 0.0 0.0 0.00 0.00 0.00 42 1024.4
20260501213123 55 214 0.0 0.0 0.00 0.00 0.00 41 1024.4
20260501212624 56 218 0.0 0.0 0.00 0.00 0.00 41 1024.0
20260501212123 56 224 0.0 0.0 0.00 0.00 0.00 41 1024.0
20260501211623 56 255 0.0 0.0 0.00 0.00 0.00 40 1024.0
20260501211123 57 234 0.0 0.0 0.00 0.00 0.00 40 1024.0
20260501210624 57 230 0.0 0.0 0.00 0.00 0.00 40 1024.0
20260501210124 57 241 0.0 0.0 0.00 0.00 0.00 39 1024.4
20260501205624 57 231 1.0 1.0 0.00 0.00 0.00 39 1024.4
20260501205123 57 226 0.0 0.0 0.00 0.00 0.00 39 1024.4
20260501204624 57 223 0.0 0.0 0.00 0.00 0.00 40 1024.0
20260501204125 57 219 0.0 0.0 0.00 0.00 0.00 38 1024.0
20260501203623 58 218 0.0 0.0 0.00 0.00 0.00 38 1024.4
20260501203124 59 228 0.0 0.0 0.00 0.00 0.00 37 1024.4
20260501202623 59 167 1.0 1.0 0.00 0.00 0.00 36 1024.4
20260501202124 59 191 1.0 1.0 0.00 0.00 0.00 36 1024.0
20260501201625 59 248 1.0 1.0 0.00 0.00 0.00 36 1024.0
20260501201123 59 143 1.0 1.0 0.00 0.00 0.00 35 1024.4
20260501200624 59 206 0.0 0.0 0.00 0.00 0.00 35 1024.4
20260501200125 60 210 0.0 0.0 0.00 0.00 0.00 35 1024.4
20260501195623 60 253 1.0 1.0 0.00 0.00 0.00 34 1024.4
20260501195124 60 255 1.0 1.0 0.00 0.00 0.00 33 1024.4
20260501194623 60 242 1.0 1.0 0.00 0.00 0.00 33 1024.4
20260501194123 61 227 1.0 1.0 0.00 0.00 0.00 32 1024.4
20260501193623 61 256 1.0 1.0 0.00 0.00 0.00 32 1024.4
20260501193123 62 257 1.0 2.0 0.00 0.00 0.00 31 1024.4
20260501192624 61 233 1.0 1.0 0.00 0.00 0.00 31 1024.4
20260501192124 62 226 0.0 0.0 0.00 0.00 0.00 31 1024.4
20260501191623 62 250 1.0 1.0 0.00 0.00 0.00 31 1024.4
20260501191124 62 212 0.0 1.0 0.00 0.00 0.00 31 1024.0
20260501190624 62 217 0.0 0.0 0.00 0.00 0.00 30 1024.4
20260501190123 63 220 1.0 1.0 0.00 0.00 0.00 30 1024.4
20260501185624 63 243 1.0 2.0 0.00 0.00 0.00 29 1024.4
20260501185124 64 4 3.0 3.0 0.00 0.00 0.00 29 1024.4
20260501184623 64 342 3.0 3.0 0.00 0.00 0.00 29 1024.4
20260501184124 64 34 2.0 3.0 0.00 0.00 0.00 29 1024.4
20260501183625 64 273 1.0 1.0 0.00 0.00 0.00 29 1024.0
20260501183124 65 192 1.0 2.0 0.00 0.00 0.00 29 1024.4
20260501182623 65 216 2.0 2.0 0.00 0.00 0.00 30 1024.0
20260501182123 66 227 2.0 3.0 0.00 0.00 0.00 30 1024.0
20260501181623 66 325 1.0 2.0 0.00 0.00 0.00 30 1024.4
20260501181124 67 271 2.0 3.0 0.00 0.00 0.00 30 1024.4
20260501180623 67 186 1.0 1.0 0.00 0.00 0.00 30 1024.0
20260501180123 67 270 2.0 3.0 0.00 0.00 0.00 29 1024.4
20260501175623 68 344 4.0 5.0 0.00 0.00 0.00 28 1024.0
20260501175123 68 3 4.0 5.0 0.00 0.00 0.00 28 1024.0
20260501174623 68 346 2.0 2.0 0.00 0.00 0.00 28 1024.0
20260501174123 69 346 1.0 2.0 0.00 0.00 0.00 27 1024.0
20260501173623 69 2 4.0 5.0 0.00 0.00 0.00 27 1024.0
20260501173124 70 246 1.0 1.0 0.00 0.00 0.00 24 1024.0
20260501172623 70 226 3.0 5.0 0.00 0.00 0.00 24 1024.4
20260501172123 71 233 2.0 3.0 0.00 0.00 0.00 24 1024.0
20260501171623 71 328 6.0 7.0 0.00 0.00 0.00 23 1024.0
20260501171124 71 250 0.0 1.0 0.00 0.00 0.00 24 1024.0
20260501170623 71 259 3.0 5.0 0.00 0.00 0.00 23 1024.0
20260501170123 71 300 3.0 5.0 0.00 0.00 0.00 23 1024.0
20260501165623 72 212 1.0 2.0 0.00 0.00 0.00 23 1024.0
20260501165123 72 358 3.0 3.0 0.00 0.00 0.00 23 1024.0
20260501164623 73 313 5.0 7.0 0.00 0.00 0.00 22 1024.0
20260501164123 73 1 5.0 7.0 0.00 0.00 0.00 22 1024.4
20260501163624 73 358 2.0 3.0 0.00 0.00 0.00 22 1024.4